COSMOS 1198

Satellite information

Favourite Embed

Satellite Type and Status

PAYLOADIN ORBIT

Key statistics

Satellite COSMOS 1198 at a glance.

Uptime

16553

Days in orbit

Revolutions

≈ 12.4

Per day

Orbit

LEO

Low Earth Orbit

Inclination

74.0

Latest

Satellite identification and parameters

Extended collection of information and parameters for COSMOS 1198.

Object identification

Identified? True

Debris? False

Object name: COSMOS 1198

International designator: 1980-058G

Object number (NORAD): 11881

Object ID (CCSDS): 11881

Country: COMMONWEALTH OF INDEPENDENT STATES (CIS)

Current information (Y/N): Y

RCS size: MEDIUM

Orbital parameters

Period: 115.775 minutes

Inclination: 74.0155 deg

SMA: 7868.716 km

Apoapsis: 1507.925 km

Periapsis: 1473.237 km

RAAN: 153.8197 deg

Eccentricy: 0.00220415

Argument of periapsis: 178.1703 deg

Mean anomaly: 210.9366 deg

Mean motion: 12.43789738 rev/day

Mean motion (dot): 0.00000016 rev/day2

B* drag term: 0.00022702835 1/REarth

Two-line elements (TLE)

Creation date: Nov. 1, 2025, 7:40 p.m.

Reference frame: TEME

Reference center: EARTH

Epoch: Nov. 1, 2025, 1:14 p.m. UTC

TLE line 0: 0 COSMOS 1198

TLE line 1: 1 11881U 80058G 25305.55170495 .00000016 00000-0 22703-3 0 9995

TLE line 2: 2 11881 74.0155 153.8197 0022042 178.1703 210.9366 12.43789738 57533

Live tracking on map

Real-time ground track for satellite COSMOS 1198.

In-orbit conjunctions

A list of the most updated potential collisions computed for object COSMOS 1198.

Target Orbit TCA Probability of collision Miss distance Type
SL-14 DEB LEO 2025-01-04 03:05:10 0.0005354072 555.0 (m) DEBRIS

Associated space launch

Optical film-return reconnaissance satellite

COSMOS 1198 was lifted into orbit during the mission ‘Soyuz U | Zenit-6U 22’, on board a Soyuz U space rocket.

The launch took place on July 9, 1980, 12:40 p.m. from 41/1.

For more information about the launch, click the button.

Launch to space Soyuz U | Zenit-6U 22
Soyuz U | Zenit-6U 22

Agency: N/A

Status: Launch Successful

Launch date: July 9, 1980, 12:40 p.m. UTC

Rocket: Soyuz U

Launch pad: 41/1

Location: Plesetsk Cosmodrome, Russian Federation

...

Latest news about this satellite

There are no fresh news available about this satellite. Check back as we update our databases every day.


Newsletter sign-up

Weekly statistics, charts and insights to help you stay on top of the space industry.